[[{"header":{"parameterUnit":"m.s-1","parameterCategory":1,"la1":30.2991,"la2":30.254,"lo1":-89.0895,"lo2":-89.0444,"dy":0.0017,"dx":0.0017,"nx":28,"ny":28,"refTime":"2025-09-02T09:00:00:Z","depth":0,"parameterNumber":2,"parameterNumberName":"U-component_of_WINDS"},"data":[0,0,0,0,0,0,0,0,0,0,0,0,0,0,0,0,0,0,0,0,0,0,0,0,0,0,0,0,0,0,0,0,0,0,0,0,0,0,0,0,0,0,0,0,0,0,0,0,0,0,0,0,0,0,0,0,0,0,-4.3278,-4.3278,0,-4.3255,-4.3255,-4.3255,-4.3113,-4.3109,-4.3106,-4.3102,-4.3081,-4.3084,-4.3087,0,0,0,0,0,0,0,0,0,0,0,0,0,-4.3202,-4.3204,-4.3278,-4.3278,-4.3278,-4.3255,-4.3255,-4.3255,-4.3113,-4.3109,-4.3105,-4.3101,-4.3081,-4.3084,-4.3087,0,0,0,0,0,0,0,0,0,0,0,0,0,-4.3213,-4.3204,-4.3278,-4.3204,-4.3197,-4.3255,-4.3255,-4.3255,-4.3114,-4.3109,-4.3104,-4.3099,-4.308,-4.3083,-4.3087,-4.3216,0,0,-4.31,-4.3101,0,0,0,0,0,0,0,0,-4.3212,-4.3216,-4.3215,-4.3209,-4.3202,-4.3181,-4.322,-4.3242,-4.3115,-4.3146,-4.3102,-4.3096,-4.3119,-4.3119,-4.3127,-4.3215,-4.3214,-4.31,-4.3102,-4.3104,-4.3105,0,0,0,0,0,0,0,-4.3212,-4.3216,-4.3269,-4.3216,-4.3207,-4.3173,-4.3169,-4.3224,-4.3162,-4.3143,-4.3132,-4.3131,-4.3114,-4.3123,-4.3125,-4.3213,-4.31,-4.3103,-4.3106,-4.3107,-4.3407,-4.3412,0,0,0,0,0,0,-4.3221,-4.3216,-4.327,-4.3268,-4.3194,-4.3179,-4.3174,-4.3193,-4.3161,-4.3151,-4.3136,-4.3125,-4.3119,-4.3121,-4.3124,-4.3272,-4.3104,-4.3108,-4.311,-4.3401,-4.3408,-4.3414,0,0,0,0,0,0,-4.322,-4.3227,-4.3271,-4.3239,-4.3242,-4.3185,-4.3208,-4.3196,-4.3204,-4.3156,-4.3144,-4.3156,-4.3115,-4.3118,-4.3194,-4.327,-4.3109,-4.3113,-4.3395,-4.3403,-4.3411,-4.3571,0,0,0,0,0,0,-4.3218,-4.3227,-4.3275,-4.3242,-4.3245,-4.3341,-4.3213,-4.3199,-4.3211,-4.3196,-4.3171,-4.3162,-4.3111,-4.3189,-4.3198,-4.3272,-4.3116,-4.3388,-4.3398,-4.3408,-4.3559,-4.3584,-4.3605,0,0,0,0,0,-4.3216,-4.3321,-4.3278,-4.3285,-4.3303,-4.3345,-4.3347,-4.3285,-4.3218,-4.3265,-4.3234,-4.3163,-4.326,-4.3198,-4.3207,-4.3284,-4.3382,-4.3395,-4.3407,-4.3548,-4.3579,-4.3605,0,0,0,0,0,0,-4.3365,-4.3315,-4.3267,-4.3364,-4.336,-4.3321,-4.3379,-4.332,-4.3335,-4.3321,-4.3244,-4.324,-4.3328,-4.3313,-4.3244,-4.3407,-4.3309,-4.3324,-4.3413,-4.3442,-4.3464,-4.3466,-4.312,0,0,0,0,0,-4.3409,-4.3448,-4.3402,-4.3492,-4.3493,-4.3437,-4.3453,-4.3406,-4.3399,-4.3397,-4.3371,-4.3368,-4.3397,-4.3419,-4.3443,-4.3556,-4.3549,-4.3613,-4.3637,-4.3656,-4.367,-4.373,-4.3758,-4.3455,-4.3455,-4.3455,0,0,-4.3501,-4.3478,-4.3507,-4.3522,-4.3513,-4.3555,-4.3436,-4.3486,-4.3517,-4.3404,-4.3474,-4.3456,-4.3447,-4.3542,-4.3583,-4.3533,-4.3752,-4.3672,-4.3688,-4.3691,-4.3745,-4.3774,-4.38,-4.3463,-4.3462,-4.3461,0,0,-4.369,-4.3676,-4.375,-4.3744,-4.3732,-4.3695,-4.3713,-4.3684,-4.3667,-4.3736,-4.3653,-4.3689,-4.3741,-4.3739,-4.3744,-4.3934,-4.387,-4.3944,-4.4066,-4.4125,-4.4149,-4.417,-4.4239,-4.4264,-4.3958,-4.3959,-4.3959,0,-4.3805,-4.3865,-4.3796,-4.3852,-4.3861,-4.3761,-4.3836,-4.3834,-4.3831,-4.3841,-4.3784,-4.3849,-4.3836,-4.3929,-4.3976,-4.3984,-4.4003,-4.3947,-4.4151,-4.4171,-4.419,-4.4254,-4.428,-4.3968,-4.3967,-4.3966,-4.3965,0,-4.4008,-4.4051,-4.4113,-4.4112,-4.4129,-4.4194,-4.4136,-4.4161,-4.4113,-4.4082,-4.4154,-4.4135,-4.4155,-4.4173,-4.4127,-4.4262,-4.4231,-4.4164,-4.4065,-4.4229,-4.4288,-4.4313,-4.3981,-4.3978,-4.3975,-4.3973,0,0,-4.429,-4.4251,-4.4275,-4.4274,-4.4255,-4.4287,-4.4348,-4.4367,-4.439,-4.4392,-4.4443,-4.449,-4.4428,-4.4435,-4.4388,-4.444,-4.4593,-4.4366,-4.4365,-4.441,-4.4741,-4.4792,-4.4821,-4.455,-4.4554,-4.4558,-4.4742,0,-4.4471,-4.4573,-4.4514,-4.4624,-4.4664,-4.457,-4.4624,-4.4618,-4.4591,-4.4622,-4.4592,-4.4627,-4.4542,-4.4546,-4.4593,-4.4564,-4.4658,-4.455,-4.4597,-4.4599,-4.4602,-4.4852,-4.4905,-4.508,-4.4765,-4.4769,-4.4771,0,-4.4696,-4.4708,-4.4823,-4.4797,-4.4811,-4.486,-4.4873,-4.4903,-4.4896,-4.4872,-4.4881,-4.4821,-4.488,-4.4783,-4.4864,-4.4792,-4.4808,-4.4797,-4.4802,-4.4804,-4.4696,-4.4862,-4.5134,-4.5161,-4.4807,-4.4804,-4.4802,0,-4.4891,-4.4936,-4.501,-4.5012,-4.4984,-4.5021,-4.5011,-4.4998,-4.5013,-4.5025,-4.5034,-4.5053,-4.5064,-4.5081,-4.5028,-4.4961,-4.5118,-4.5015,-4.5101,-4.5103,-4.5138,-4.5137,-4.5418,-4.5148,-4.5148,-4.5147,-4.5147,0,-4.51,-4.5174,-4.5097,-4.5144,-4.5224,-4.5156,-4.5238,-4.5218,-4.5208,-4.525,-4.517,-4.5211,-4.5138,-4.5173,-4.5132,-4.5207,-4.5212,-4.5196,-4.5184,-4.5203,-4.5205,-4.5212,-4.5199,-4.5154,-4.5153,-4.5151,-4.515,0,-4.5331,-4.5282,-4.5358,-4.5325,-4.5318,-4.538,-4.5351,-4.5393,-4.5361,-4.5415,-4.5424,-4.5374,-4.541,-4.5359,-4.539,-4.5362,-4.5465,-4.5435,-4.5468,-4.5459,-4.5548,-4.5541,-4.5844,-4.5881,-4.5588,-4.5591,-4.5593,0,-4.5468,-4.5523,-4.5496,-4.5518,-4.5512,-4.5548,-4.5564,-4.5499,-4.5519,-4.5515,-4.5558,-4.5587,-4.5607,-4.5669,-4.5637,-4.566,-4.563,-4.5735,-4.5633,-4.5651,-4.5633,-4.563,-4.5636,-4.5756,-4.5759,-4.5762,-4.5765,0,-4.5716,-4.5689,-4.5714,-4.5732,-4.5753,-4.5763,-4.5768,-4.5791,-4.5723,-4.575,-4.5785,-4.5801,-4.5832,-4.5863,-4.5878,-4.5868,-4.5807,-4.5797,-4.5818,-4.5838,-4.5855,-4.5848,-4.5525,-4.579,-4.5788,-4.5786,-4.5784,-4.5783,-4.5904,-4.5949,-4.5937,-4.5968,-4.5965,-4.5972,-4.601,-4.5983,-4.6011,-4.6032,-4.5992,-4.6038,-4.6031,-4.6045,-4.6042,-4.6078,-4.6033,-4.6063,-4.6071,-4.608,-4.6094,-4.585,-4.6081,-4.608,-4.6079,-4.6078,-4.6078,0,-4.6148,-4.6136,-4.6166,-4.6175,-4.62,-4.6139,-4.6142,-4.6167,-4.6208,-4.6206,-4.6227,-4.6269,-4.6299,-4.6269,-4.6293,-4.6328,-4.63,-4.6336,-4.6333,-4.6332,-4.6133,-4.6112,-4.6358,-4.6358,-4.6358,-4.6358,-4.6358,-4.6358,-4.6278,-4.6351,-4.6324,-4.6396,-4.6383,-4.6427,-4.6434,-4.6441,-4.6439,-4.6489,-4.6513,-4.6493,-4.648,-4.6503,-4.6528,-4.6518,-4.6531,-4.6578,-4.6559,-4.6374,-4.6346,-4.632,-4.63,-4.6582,-4.6582,-4.6755,-4.6757,-4.6758]},{"header":{"parameterUnit":"m.s-1","parameterCategory":1,"la1":30.2991,"la2":30.254,"lo1":-89.0895,"lo2":-89.0444,"dy":0.0017,"dx":0.0017,"nx":28,"ny":28,"refTime":"2025-09-02T09:00:00:Z","depth":0,"parameterNumber":3,"parameterNumberName":"V-component_of_WINDS"},"data":[0,0,0,0,0,0,0,0,0,0,0,0,0,0,0,0,0,0,0,0,0,0,0,0,0,0,0,0,0,0,0,0,0,0,0,0,0,0,0,0,0,0,0,0,0,0,0,0,0,0,0,0,0,0,0,0,0,0,-0.088,-0.0879,0,-0.0878,-0.0878,-0.0878,-0.0849,-0.0848,-0.0848,-0.0847,-0.0848,-0.0849,-0.085,0,0,0,0,0,0,0,0,0,0,0,0,0,-0.0859,-0.0859,-0.088,-0.0879,-0.0879,-0.0878,-0.0878,-0.0878,-0.0849,-0.0848,-0.0847,-0.0847,-0.0848,-0.0849,-0.085,0,0,0,0,0,0,0,0,0,0,0,0,0,-0.0864,-0.0859,-0.088,-0.0865,-0.0863,-0.0878,-0.0878,-0.0878,-0.0849,-0.0848,-0.0847,-0.0846,-0.0848,-0.0849,-0.085,-0.0879,0,0,-0.0853,-0.0854,0,0,0,0,0,0,0,0,-0.0863,-0.0864,-0.0867,-0.0866,-0.0864,-0.0863,-0.0871,-0.0879,-0.085,-0.0855,-0.0847,-0.0846,-0.0854,-0.0855,-0.0857,-0.0879,-0.088,-0.0853,-0.0854,-0.0854,-0.0855,0,0,0,0,0,0,0,-0.0863,-0.0864,-0.0879,-0.0867,-0.0865,-0.0859,-0.0858,-0.0873,-0.0861,-0.0854,-0.0852,-0.0852,-0.0853,-0.0856,-0.0857,-0.088,-0.0853,-0.0854,-0.0855,-0.0855,-0.0927,-0.0928,0,0,0,0,0,0,-0.0864,-0.0864,-0.0879,-0.0879,-0.0861,-0.086,-0.086,-0.0864,-0.0861,-0.0859,-0.0853,-0.0851,-0.0855,-0.0855,-0.0857,-0.0892,-0.0854,-0.0855,-0.0856,-0.0925,-0.0927,-0.0928,0,0,0,0,0,0,-0.0864,-0.0866,-0.0879,-0.0871,-0.0872,-0.0862,-0.0867,-0.0865,-0.0868,-0.086,-0.0858,-0.0858,-0.0854,-0.0855,-0.0874,-0.0891,-0.0856,-0.0857,-0.0924,-0.0926,-0.0928,-0.0962,0,0,0,0,0,0,-0.0864,-0.0866,-0.0877,-0.0871,-0.0873,-0.0896,-0.0868,-0.0866,-0.0869,-0.0866,-0.0864,-0.0862,-0.0853,-0.0872,-0.0875,-0.0892,-0.0858,-0.0922,-0.0925,-0.0927,-0.0959,-0.0965,-0.097,0,0,0,0,0,-0.0863,-0.0887,-0.0878,-0.088,-0.0886,-0.0897,-0.0898,-0.0886,-0.0871,-0.0882,-0.0877,-0.0863,-0.0889,-0.0875,-0.0877,-0.0895,-0.0921,-0.0924,-0.0927,-0.0957,-0.0964,-0.0969,0,0,0,0,0,0,-0.0896,-0.0886,-0.0876,-0.0898,-0.0899,-0.0892,-0.0906,-0.0893,-0.0898,-0.0895,-0.0881,-0.088,-0.0902,-0.09,-0.0884,-0.0924,-0.0902,-0.0906,-0.0925,-0.0931,-0.0936,-0.0937,-0.0859,0,0,0,0,0,-0.0906,-0.0915,-0.0906,-0.0927,-0.0928,-0.0917,-0.0921,-0.0912,-0.0912,-0.0912,-0.0908,-0.0909,-0.0918,-0.0924,-0.0931,-0.0958,-0.0958,-0.0972,-0.0977,-0.0981,-0.0985,-0.1,-0.1006,-0.0937,-0.0937,-0.0937,0,0,-0.0927,-0.0922,-0.0929,-0.0934,-0.0933,-0.0944,-0.0917,-0.093,-0.0938,-0.0914,-0.0932,-0.0929,-0.0929,-0.0952,-0.0962,-0.0952,-0.1004,-0.0985,-0.0988,-0.099,-0.1003,-0.101,-0.1016,-0.0939,-0.0939,-0.0939,0,0,-0.097,-0.0967,-0.0985,-0.0984,-0.0983,-0.0975,-0.0979,-0.0974,-0.0971,-0.0988,-0.0971,-0.098,-0.0995,-0.0996,-0.0999,-0.1041,-0.1029,-0.1044,-0.1072,-0.1086,-0.1092,-0.1097,-0.1113,-0.1119,-0.1047,-0.1047,-0.1048,0,-0.0997,-0.1011,-0.0996,-0.1009,-0.1012,-0.099,-0.1008,-0.1008,-0.101,-0.1012,-0.1,-0.1018,-0.1016,-0.104,-0.105,-0.1052,-0.1058,-0.1045,-0.1092,-0.1097,-0.1101,-0.1117,-0.1123,-0.1049,-0.1049,-0.1049,-0.1049,0,-0.1044,-0.1055,-0.1069,-0.107,-0.1074,-0.109,-0.1078,-0.1084,-0.1073,-0.1067,-0.1085,-0.1082,-0.1089,-0.1093,-0.1084,-0.1116,-0.1109,-0.1094,-0.1073,-0.111,-0.1124,-0.113,-0.1052,-0.1052,-0.1051,-0.1051,0,0,-0.1111,-0.1102,-0.1108,-0.1108,-0.1104,-0.1112,-0.1127,-0.1132,-0.1139,-0.114,-0.1153,-0.1165,-0.1151,-0.1154,-0.1144,-0.1157,-0.1192,-0.114,-0.114,-0.1151,-0.1228,-0.1241,-0.1248,-0.1183,-0.1184,-0.1184,-0.1229,0,-0.1154,-0.1179,-0.1165,-0.1191,-0.1201,-0.1179,-0.1192,-0.1192,-0.1186,-0.1194,-0.1188,-0.1197,-0.1178,-0.1179,-0.1191,-0.1185,-0.1208,-0.1182,-0.1196,-0.1197,-0.1198,-0.1255,-0.1269,-0.1311,-0.1234,-0.1235,-0.1236,0,-0.1209,-0.1211,-0.1239,-0.1233,-0.1237,-0.1249,-0.1252,-0.126,-0.1259,-0.1254,-0.1256,-0.1243,-0.1258,-0.1235,-0.1255,-0.1238,-0.1243,-0.1241,-0.1242,-0.1245,-0.122,-0.1261,-0.1324,-0.1331,-0.1244,-0.1244,-0.1243,0,-0.1256,-0.1267,-0.1285,-0.1285,-0.1279,-0.1288,-0.1285,-0.1283,-0.1287,-0.129,-0.1293,-0.1298,-0.1301,-0.1306,-0.1295,-0.1279,-0.1317,-0.1293,-0.1315,-0.1315,-0.1326,-0.1326,-0.1392,-0.1326,-0.1325,-0.1325,-0.1325,0,-0.1307,-0.1326,-0.1306,-0.1318,-0.1337,-0.1321,-0.1341,-0.1336,-0.1334,-0.1344,-0.1325,-0.1336,-0.1319,-0.1328,-0.1319,-0.1338,-0.134,-0.1337,-0.1335,-0.134,-0.134,-0.1344,-0.1342,-0.1327,-0.1327,-0.1326,-0.1326,0,-0.1365,-0.1352,-0.1371,-0.1362,-0.1361,-0.1376,-0.1369,-0.1379,-0.1371,-0.1385,-0.1387,-0.1375,-0.1385,-0.1373,-0.1382,-0.1376,-0.1402,-0.1395,-0.1403,-0.1401,-0.1424,-0.1423,-0.1497,-0.1506,-0.1432,-0.1433,-0.1433,0,-0.14,-0.1413,-0.1405,-0.1411,-0.1409,-0.1418,-0.1422,-0.1406,-0.1411,-0.141,-0.1421,-0.1428,-0.1433,-0.145,-0.1442,-0.1449,-0.1443,-0.1468,-0.1444,-0.1448,-0.1445,-0.1445,-0.1447,-0.1474,-0.1475,-0.1475,-0.1476,0,-0.1463,-0.1456,-0.1461,-0.1465,-0.147,-0.1472,-0.1473,-0.1479,-0.1462,-0.1468,-0.1477,-0.1481,-0.1489,-0.1498,-0.1502,-0.15,-0.1486,-0.1483,-0.1489,-0.1495,-0.15,-0.1499,-0.1418,-0.1482,-0.1482,-0.1481,-0.1481,-0.1481,-0.1511,-0.1522,-0.1519,-0.1526,-0.1524,-0.1525,-0.1535,-0.1528,-0.1535,-0.154,-0.1529,-0.1541,-0.1539,-0.1543,-0.1543,-0.1553,-0.1542,-0.155,-0.1552,-0.1555,-0.1559,-0.1497,-0.1553,-0.1553,-0.1553,-0.1552,-0.1552,0,-0.1575,-0.1571,-0.1577,-0.1579,-0.1585,-0.1569,-0.1569,-0.1575,-0.1585,-0.1584,-0.1589,-0.16,-0.1607,-0.16,-0.1606,-0.1615,-0.1609,-0.1618,-0.1618,-0.1618,-0.1567,-0.1563,-0.1623,-0.1623,-0.1623,-0.1623,-0.1623,-0.1623,-0.1609,-0.1627,-0.1619,-0.1636,-0.1632,-0.1643,-0.1645,-0.1646,-0.1645,-0.1657,-0.1663,-0.1658,-0.1654,-0.166,-0.1666,-0.1664,-0.1668,-0.168,-0.1675,-0.1628,-0.1622,-0.1615,-0.1611,-0.168,-0.168,-0.1726,-0.1726,-0.1726]}]]